Time,TemperatureF,DewpointF,PressureIn,WindDirection,WindDirectionDegrees,WindSpeedMPH,WindSpeedGustMPH,Humidity,HourlyPrecipIn,Conditions,Clouds,dailyrainin,SoftwareType,DateUTC
2013-11-14 00:22:00,38.0,27.0,30.03,WNW,285,7.0,14.0,64,0.00,,,0.00,,2013-11-14 06:22:00,
2013-11-14 00:42:00,38.0,27.0,30.02,SE,146,6.0,12.0,64,0.00,,,0.00,,2013-11-14 06:42:00,
2013-11-14 00:52:00,38.0,27.0,30.02,West,263,6.0,13.0,64,0.00,,,0.00,,2013-11-14 06:52:00,
2013-11-14 01:11:00,38.0,27.0,30.01,WSW,244,6.0,11.0,63,0.00,,,0.00,,2013-11-14 07:11:00,
2013-11-14 01:22:00,38.0,27.0,30.01,SSW,196,7.0,13.0,63,0.00,,,0.00,,2013-11-14 07:22:00,
2013-11-14 01:42:00,38.0,27.0,30.00,WNW,293,8.0,14.0,63,0.00,,,0.00,,2013-11-14 07:42:00,
2013-11-14 01:53:00,38.0,26.0,29.99,NW,313,6.0,14.0,62,0.00,,,0.00,,2013-11-14 07:53:00,
2013-11-14 02:12:00,38.0,26.0,29.98,WSW,254,8.0,14.0,62,0.00,,,0.00,,2013-11-14 08:12:00,
2013-11-14 02:21:00,37.0,25.0,29.98,West,267,8.0,15.0,62,0.00,,,0.00,,2013-11-14 08:21:00,
2013-11-14 02:53:00,37.0,25.0,29.98,West,265,7.0,13.0,62,0.00,,,0.00,,2013-11-14 08:53:00,
2013-11-14 03:11:00,37.0,26.0,29.97,SW,234,7.0,14.0,63,0.00,,,0.00,,2013-11-14 09:11:00,
2013-11-14 03:22:00,37.0,25.0,29.96,South,188,9.0,16.0,62,0.00,,,0.00,,2013-11-14 09:22:00,
2013-11-14 03:43:00,37.0,25.0,29.96,South,188,8.0,15.0,62,0.00,,,0.00,,2013-11-14 09:43:00,
2013-11-14 03:52:00,37.0,25.0,29.96,WNW,287,7.0,13.0,61,0.00,,,0.00,,2013-11-14 09:52:00,
2013-11-14 04:23:00,36.0,24.0,29.96,SSW,197,5.0,11.0,62,0.00,,,0.00,,2013-11-14 10:23:00,
2013-11-14 04:42:00,37.0,25.0,29.96,SE,126,5.0,11.0,61,0.00,,,0.00,,2013-11-14 10:42:00,
2013-11-14 04:52:00,37.0,25.0,29.96,WSW,254,6.0,12.0,61,0.00,,,0.00,,2013-11-14 10:52:00,
2013-11-14 05:11:00,36.0,24.0,29.96,SW,221,4.0,10.0,61,0.00,,,0.00,,2013-11-14 11:11:00,
2013-11-14 05:22:00,36.0,24.0,29.96,SSE,168,3.0,8.0,61,0.00,,,0.00,,2013-11-14 11:22:00,
2013-11-14 05:42:00,36.0,24.0,29.96,WNW,302,2.0,8.0,62,0.00,,,0.00,,2013-11-14 11:42:00,
2013-11-14 05:52:00,35.0,24.0,29.95,SSW,192,3.0,6.0,63,0.00,,,0.00,,2013-11-14 11:52:00,
2013-11-14 06:12:00,35.0,23.0,29.95,South,170,2.0,6.0,62,0.00,,,0.00,,2013-11-14 12:12:00,
2013-11-14 06:21:00,35.0,23.0,29.95,WNW,286,2.0,6.0,62,0.00,,,0.00,,2013-11-14 12:21:00,
2013-11-14 06:42:00,35.0,23.0,29.94,WSW,246,4.0,9.0,61,0.00,,,0.00,,2013-11-14 12:42:00,
2013-11-14 06:52:00,35.0,23.0,29.95,WNW,284,4.0,7.0,60,0.00,,,0.00,,2013-11-14 12:52:00,
2013-11-14 07:22:00,35.0,23.0,29.95,NW,304,4.0,8.0,60,0.00,,,0.00,,2013-11-14 13:22:00,
2013-11-14 07:42:00,35.0,23.0,29.96,West,279,3.0,7.0,61,0.00,,,0.00,,2013-11-14 13:42:00,
2013-11-14 07:52:00,35.0,23.0,29.96,WNW,290,3.0,7.0,61,0.00,,,0.00,,2013-11-14 13:52:00,
2013-11-14 08:11:00,35.0,23.0,29.96,West,281,4.0,8.0,60,0.00,,,0.00,,2013-11-14 14:11:00,
2013-11-14 08:22:00,36.0,23.0,29.95,West,268,4.0,8.0,59,0.00,,,0.00,,2013-11-14 14:22:00,
2013-11-14 08:52:00,37.0,23.0,29.97,West,265,6.0,10.0,56,0.00,,,0.00,,2013-11-14 14:52:00,
2013-11-14 09:22:00,39.0,24.0,29.97,West,279,7.0,14.0,54,0.00,,,0.00,,2013-11-14 15:22:00,
2013-11-14 09:43:00,39.0,24.0,29.97,West,272,7.0,12.0,54,0.00,,,0.00,,2013-11-14 15:43:00,
2013-11-14 09:53:00,40.0,24.0,29.97,WSW,242,8.0,14.0,52,0.00,,,0.00,,2013-11-14 15:53:00,
2013-11-14 10:13:00,42.0,25.0,29.97,West,269,7.0,14.0,51,0.00,,,0.00,,2013-11-14 16:13:00,
2013-11-14 10:23:00,44.0,25.0,29.97,West,272,8.0,13.0,47,0.00,,,0.00,,2013-11-14 16:23:00,
2013-11-14 10:42:00,46.0,25.0,29.97,NW,311,6.0,11.0,44,0.00,,,0.00,,2013-11-14 16:42:00,
2013-11-14 10:52:00,47.0,26.0,29.97,WNW,284,7.0,14.0,44,0.00,,,0.00,,2013-11-14 16:52:00,
2013-11-14 11:13:00,48.0,27.0,29.96,NNW,344,4.0,11.0,43,0.00,,,0.00,,2013-11-14 17:13:00,
2013-11-14 11:22:00,47.0,26.0,29.97,NNW,328,4.0,11.0,43,0.00,,,0.00,,2013-11-14 17:22:00,
2013-11-14 11:42:00,49.0,27.0,29.97,NNW,337,5.0,9.0,42,0.00,,,0.00,,2013-11-14 17:42:00,
2013-11-14 11:52:00,49.0,27.0,29.97,NNW,346,4.0,8.0,43,0.00,,,0.00,,2013-11-14 17:52:00,
2013-11-14 12:12:00,49.0,27.0,29.96,North,9,3.0,8.0,43,0.00,,,0.00,,2013-11-14 18:12:00,
2013-11-14 12:21:00,50.0,28.0,29.95,West,280,4.0,9.0,43,0.00,,,0.00,,2013-11-14 18:21:00,
2013-11-14 12:42:00,50.0,28.0,29.94,NW,309,4.0,10.0,43,0.00,,,0.00,,2013-11-14 18:42:00,
2013-11-14 12:52:00,51.0,29.0,29.93,NNW,337,4.0,7.0,43,0.00,,,0.00,,2013-11-14 18:52:00,
2013-11-14 13:11:00,52.0,30.0,29.93,North,9,2.0,8.0,43,0.00,,,0.00,,2013-11-14 19:11:00,
2013-11-14 13:21:00,53.0,32.0,29.92,NNW,327,4.0,7.0,44,0.00,,,0.00,,2013-11-14 19:21:00,
2013-11-14 13:42:00,53.0,31.0,29.92,WNW,298,2.0,7.0,43,0.00,,,0.00,,2013-11-14 19:42:00,
2013-11-14 13:52:00,54.0,31.0,29.92,NNW,337,1.0,7.0,42,0.00,,,0.00,,2013-11-14 19:52:00,
2013-11-14 14:12:00,54.0,32.0,29.92,North,5,0.0,6.0,43,0.00,,,0.00,,2013-11-14 20:12:00,
2013-11-14 14:22:00,55.0,33.0,29.91,NE,40,0.0,3.0,44,0.00,,,0.00,,2013-11-14 20:22:00,
2013-11-14 14:42:00,55.0,32.0,29.91,NNE,21,0.0,5.0,42,0.00,,,0.00,,2013-11-14 20:42:00,
2013-11-14 14:52:00,55.0,33.0,29.90,NNW,331,3.0,6.0,44,0.00,,,0.00,,2013-11-14 20:52:00,
2013-11-14 15:11:00,54.0,33.0,29.90,NE,36,0.0,2.0,45,0.00,,,0.00,,2013-11-14 21:11:00,
2013-11-14 15:22:00,54.0,34.0,29.90,NE,34,0.0,2.0,46,0.00,,,0.00,,2013-11-14 21:22:00,
2013-11-14 15:43:00,54.0,34.0,29.90,NE,34,0.0,1.0,47,0.00,,,0.00,,2013-11-14 21:43:00,
2013-11-14 15:53:00,54.0,34.0,29.90,SSE,156,0.0,3.0,46,0.00,,,0.00,,2013-11-14 21:53:00,
2013-11-14 16:13:00,55.0,35.0,29.90,SE,146,0.0,3.0,46,0.00,,,0.00,,2013-11-14 22:13:00,
2013-11-14 16:23:00,55.0,35.0,29.89,SSE,148,1.0,4.0,47,0.00,,,0.00,,2013-11-14 22:23:00,
2013-11-14 16:43:00,53.0,34.0,29.89,SSE,154,0.0,4.0,48,0.00,,,0.00,,2013-11-14 22:43:00,
2013-11-14 16:53:00,53.0,35.0,29.89,SSE,154,0.0,2.0,50,0.00,,,0.00,,2013-11-14 22:53:00,
2013-11-14 17:12:00,52.0,34.0,29.90,SSE,154,0.0,1.0,50,0.00,,,0.00,,2013-11-14 23:12:00,
2013-11-14 17:22:00,51.0,34.0,29.89,SW,223,0.0,3.0,51,0.00,,,0.00,,2013-11-14 23:22:00,
2013-11-14 17:43:00,50.0,34.0,29.90,NW,315,0.0,1.0,54,0.00,,,0.00,,2013-11-14 23:43:00,
2013-11-14 17:52:00,49.0,34.0,29.91,NW,315,0.0,0.0,56,0.00,,,0.00,,2013-11-14 23:52:00,
2013-11-14 18:11:00,48.0,34.0,29.90,NW,312,0.0,3.0,57,0.00,,,0.00,,2013-11-15 00:11:00,
2013-11-14 18:21:00,47.0,33.0,29.90,WSW,241,0.0,3.0,57,0.00,,,0.00,,2013-11-15 00:21:00,
2013-11-14 18:42:00,46.0,32.0,29.91,WSW,248,0.0,0.0,58,0.00,,,0.00,,2013-11-15 00:42:00,
2013-11-14 18:52:00,45.0,32.0,29.91,WSW,250,0.0,1.0,61,0.00,,,0.00,,2013-11-15 00:52:00,
2013-11-14 19:22:00,45.0,33.0,29.91,West,267,0.0,0.0,62,0.00,,,0.00,,2013-11-15 01:22:00,
2013-11-14 19:42:00,43.0,32.0,29.91,West,267,0.0,0.0,65,0.00,,,0.00,,2013-11-15 01:42:00,
2013-11-14 19:52:00,41.0,32.0,29.91,West,267,0.0,0.0,69,0.00,,,0.00,,2013-11-15 01:52:00,
2013-11-14 20:12:00,39.0,30.0,29.90,SSW,209,0.0,4.0,70,0.00,,,0.00,,2013-11-15 02:12:00,
2013-11-14 20:22:00,37.0,29.0,29.90,SSW,208,0.0,2.0,73,0.00,,,0.00,,2013-11-15 02:22:00,
2013-11-14 20:42:00,38.0,31.0,29.90,SSW,208,0.0,1.0,75,0.00,,,0.00,,2013-11-15 02:42:00,
2013-11-14 20:52:00,40.0,31.0,29.90,NW,319,0.0,3.0,71,0.00,,,0.00,,2013-11-15 02:52:00,
2013-11-14 21:12:00,39.0,30.0,29.90,NW,319,0.0,0.0,71,0.00,,,0.00,,2013-11-15 03:12:00,
2013-11-14 21:22:00,37.0,30.0,29.90,NW,319,0.0,0.0,75,0.00,,,0.00,,2013-11-15 03:22:00,
2013-11-14 21:44:00,38.0,31.0,29.91,NW,319,0.0,0.0,75,0.00,,,0.00,,2013-11-15 03:44:00,
2013-11-14 21:54:00,39.0,31.0,29.91,NW,319,0.0,2.0,72,0.00,,,0.00,,2013-11-15 03:54:00,
2013-11-14 22:14:00,38.0,30.0,29.91,NW,319,0.0,1.0,72,0.00,,,0.00,,2013-11-15 04:14:00,
2013-11-14 22:24:00,37.0,29.0,29.91,NW,319,0.0,0.0,73,0.00,,,0.00,,2013-11-15 04:24:00,
2013-11-14 22:43:00,36.0,29.0,29.92,NW,319,0.0,0.0,75,0.00,,,0.00,,2013-11-15 04:43:00,
2013-11-14 22:53:00,36.0,29.0,29.92,NW,319,0.0,1.0,77,0.00,,,0.00,,2013-11-15 04:53:00,
2013-11-14 23:13:00,35.0,29.0,29.91,NW,319,0.0,0.0,78,0.00,,,0.00,,2013-11-15 05:13:00,
2013-11-14 23:22:00,35.0,29.0,29.91,NW,319,0.0,0.0,78,0.00,,,0.00,,2013-11-15 05:22:00,
2013-11-14 23:43:00,35.0,29.0,29.91,NW,319,0.0,0.0,79,0.00,,,0.00,,2013-11-15 05:43:00,
2013-11-14 23:53:00,34.0,28.0,29.90,NW,319,0.0,0.0,79,0.00,,,0.00,,2013-11-15 05:53:00,